Regional Weather Roundup
Issued by NWS

Home | Current Version | Previous Version | Text Only | Print | Product List | Glossary On
Versions: 1 2 3 4 5 6 7 8 9 10 11 12 13 14 15 16 17 18 19 20 21 22 23 24 25 26 27 28 29 30 31 32 33 34 35 36 37 38 39 40 41 42 43 44 45 46 47 48 49 50
000
ASUS44 KFWD 230410
RWRTX
NORTH TEXAS HOURLY WEATHER ROUNDUP
NATIONAL WEATHER SERVICE FORT WORTH TX
1100 PM CDT FRI SEP 22 2017

NOTE: "FAIR" INDICATES FEW OR NO CLOUDS BELOW 12,000 FEET WITH NO
SIGNIFICANT WEATHER AND/OR OBSTRUCTIONS TO VISIBILITY.

TXZ118-119-230500-
DALLAS/FORT WORTH METROPLEX

CITY           SKY/WX    TMP DP  RH WIND       PRES   REMARKS
DFW AIRPORT    CLEAR     83  66  56 SE10      29.91R
DALLAS LOVE    CLEAR     82  66  58 SE12      29.92R
FTW MEACHAM    CLEAR     84  67  56 SE12      29.92R
DAL-EXECUTIVE  CLEAR     80  67  64 SE7       29.92R
FTW-ALLIANCE   CLEAR     82  66  58 SE9       29.92R
FTW-NAS-JRB    CLEAR     84  64  50 SE12      29.92R
FTW-SPINKS     CLEAR     79  65  60 SE6       29.94R
ARLINGTON      CLEAR     81  68  64 SE8       29.93R
GRAND PRAIRIE  CLEAR     82  65  57 SE6       29.93S
ADDISON        CLEAR     82  66  58 SE9       29.94S
MESQUITE       CLEAR     77  65  67 SE5       29.93S
LANCASTER      CLEAR     78  64  63 SE3       29.94R
$$

TXZ091>094-102>105-117-120-121-131>134-230500-
NORTH CENTRAL TEXAS

CITY           SKY/WX    TMP DP  RH WIND       PRES   REMARKS
SHRMAN/DENISON CLEAR     79  64  60 SE7       29.95S
GAINESVILLE    CLEAR     75  64  67 SE6       29.95R
BOWIE          CLEAR     77  64  64 SE7       29.93R
BRIDGEPORT     CLEAR     76  64  67 SE5       29.93S
DECATUR        CLEAR     80  64  58 SE10      29.92S
DENTON         CLEAR     79  66  64 SE7       29.92R
MCKINNEY       CLEAR     79  68  69 S8        29.93R
BONHAM         CLEAR     75  64  69 SE5       29.95R
GREENVILLE     CLEAR     77  68  73 SE6       29.95R
ROCKWALL       CLEAR     78  66  66 SE7       29.94R
TERRELL        CLEAR     79  66  64 SE5       29.94R
WAXAHACHIE     CLEAR     80  68  66 SE7       29.95R
CLEBURNE       CLEAR     81  68  65 SE10      29.95R
GRANBURY       CLEAR     81  65  58 SE8       29.93R
$$

TXZ083>090-098>101-113>116-127>130-139>142-154-155-230500-
WESTERN NORTH TEXAS

CITY           SKY/WX    TMP DP  RH WIND       PRES   REMARKS
WICHITA FALLS  CLEAR     79  65  62 SE12      29.89R
WF-KICKAPOO    CLEAR     78  67  69 E12       29.92R
VERNON         CLEAR     82  62  49 SE16      29.89S
ABILENE        CLEAR     79  66  64 SE18      29.91R
ABILENE-DYESS  CLEAR     81  67  61 S16G23    29.89R
GRAHAM         CLEAR     82  64  54 SE8       29.90R
BRECKENRIDGE   CLEAR     82  64  54 SE13G20   29.91R
CISCO          CLEAR     79  66  65 SE13      29.94R
EASTLAND       CLEAR     79  66  64 SE12G17   29.93R
RANGER         CLEAR     78  66  66 S9        29.94R
MINERAL WELLS  CLEAR     77  64  64 SE6       29.91R
STEPHENVILLE   CLEAR     78  65  65 SE8       29.97R
COMANCHE       CLEAR     78  68  70 S9G17     29.95R
BROWNWOOD      PTCLDY    79  66  65 SE10G20   29.94R
COLEMAN        CLEAR     79  65  62 SE16G23   29.94R
$$

TXZ143>147-156>162-174-175-230500-
CENTRAL TEXAS

CITY           SKY/WX    TMP DP  RH WIND       PRES   REMARKS
WACO           CLEAR     81  67  62 SE12      29.92R
WACO-TSTC      CLEAR     79  68  69 SE3       29.92R
WACO-MCGREGOR  CLEAR     80  68  66 SE10      29.93R
HILLSBORO      CLEAR     80  67  64 SE8       29.93S
CORSICANA      CLEAR     77  69  76 SE7       29.94R
MEXIA          CLEAR     76  68  75 S8        29.93R
HEARNE         CLEAR    N/A N/A N/A SE3       29.94R
CAMERON        CLEAR     76  69  79 CALM      29.92S
TEMPLE         CLEAR     79  70  74 SE12      29.93R
KILLEEN        CLEAR     76  69  80 SE8       29.93R
FORT HOOD      CLEAR     76  70  81 S6        29.90R
GATESVILLE     CLEAR     77  70  78 CALM      29.95R
HAMILTON       CLEAR     77  67  72 S7        29.95S
LAMPASAS       CLEAR     78  72  81 S5        29.94S
$$

TXZ095>097-106>112-122>126-135>138-148>153-164>167-230500-
EAST TEXAS

CITY           SKY/WX    TMP DP  RH WIND       PRES   REMARKS
PARIS          CLEAR     75  69  81 SE6       29.96R
SULPHUR SPRNGS CLEAR     78  67  67 SE6       29.97R
MOUNT PLEASANT CLEAR     74  70  89 CALM      29.96S
GILMER         CLEAR     74  70  86 CALM      29.95S
MINEOLA        CLEAR     73  70  88 CALM      29.94S
TYLER          NOT AVBL
LONGVIEW       NOT AVBL
MARSHALL       CLEAR     70  66  88 CALM      29.97S
ATHENS         CLEAR     72  66  83 CALM      29.93S
PALESTINE      CLEAR     77  71  82 CALM      29.95S
JACKSONVILLE   CLEAR     78  69  75 CALM      29.97S
HENDERSON      CLEAR     72  71  95 CALM      29.96S
CENTER         CLEAR     77  75  95 CALM      29.96S
NACOGDOCHES    CLEAR     73  72  96 CALM      29.95S
$$

SUPPLEMENTAL OBSERVATIONS (NWS FORT WORTH AREA)

CITY           SKY/WX    TMP DP  RH WIND       PRES   REMARKS
CADDO GRASSLND   N/A     73  66  78 CALM        N/A
PAT MAYSE LAKE   N/A     81  72  74 E7          N/A
GREENVILLE       N/A     75  64  69 SE2         N/A
CEDAR HILL       N/A     81  66  61 SE6         N/A
LBJ GRASSLAND    N/A     81  63  54 SE9         N/A
POSSUM KINGDOM   N/A     81  64  57 SE12        N/A
GRANBURY         N/A     81  64  57 SE8         N/A
MCGREGOR         N/A     77  64  65 SE5         N/A
TEMPLE           N/A     79  70  73 SE2         N/A
$$

SUPPLEMENTAL OBSERVATIONS (NWS NORMAN AREA)

CITY           SKY/WX    TMP DP  RH WIND       PRES   REMARKS
GOODLETT         N/A     80  63  56 SE13      29.87F
ODELL            N/A     81  67  63 SE15      29.90S
CROWELL          N/A     82  65  56 SE15      29.89S
KNOX CITY        N/A     83  62  48 SE18      29.88S
SEYMOUR          N/A     81  64  55 SE15      29.89S
MILLERS CREEK    N/A     81  64  57 SE13        N/A
$$

SUPPLEMENTAL OBSERVATIONS (NWS SAN ANGELO AREA)

CITY           SKY/WX    TMP DP  RH WIND       PRES   REMARKS
HASKELL          N/A     82  62  50 SE12      29.90R
THROCKMORTON     N/A     81  66  61 SE13      29.91S
STAMFORD         N/A     82  66  58 SE16      29.90R
CLYDE            N/A     79  66  66 SE15      29.95R
HAMBY            N/A     81  64  57 SE12        N/A
IVIE RESERVOIR   N/A     79  64  61 SE13G22     N/A
COLORADO BEND    N/A     75  64  69 SE8G17      N/A
$$

SUPPLEMENTAL OBSERVATIONS (NWS SHREVEPORT AREA)

CITY           SKY/WX    TMP DP  RH WIND       PRES   REMARKS
CLARKSVILLE      N/A     77  68  73 SE1         N/A
TEXARKANA        N/A     70  68  94 CALM        N/A
LINDEN           N/A     73  68  83 CALM        N/A
GILMER           N/A     73  68  83 CALM        N/A
HENDERSON        N/A     72  70  94 CALM        N/A
LUFKIN           N/A     75  73  94 MISG        N/A
N SABINE NF      N/A     73  72  94 MISG        N/A
S SABINE NF      N/A     73  72  94 CALM        N/A
$$

SUPPLEMENTAL OBSERVATIONS ARE A COLLECTION OF AUTOMATED INSTRUMENTS
THAT ARE MAINTAINED BY A VARIETY OF FEDERAL AND STATE AGENCIES.
CERTAIN ELEMENTS...SUCH AS HUMIDITY VALUES AND SUSTAINED WIND
SPEEDS...MAY BE APPROXIMATED.





USA.gov is the U.S. government's official web portal to all federal, state and local government web resources and services.